Time,TemperatureF,DewpointF,PressureIn,WindDirection,WindDirectionDegrees,WindSpeedMPH,WindSpeedGustMPH,Humidity,HourlyPrecipIn,Conditions,Clouds,dailyrainin,SoftwareType,DateUTC
2013-01-29 00:01:00,43.0,27.0,30.00,North,0,0.0,1.0,52,0.00,,,0.03,,2013-01-29 08:01:00,
2013-01-29 00:11:00,43.0,27.0,30.00,North,0,0.0,1.0,52,0.00,,,0.03,,2013-01-29 08:11:00,
2013-01-29 00:21:00,44.0,27.0,30.00,North,0,0.0,0.0,51,0.00,,,0.03,,2013-01-29 08:21:00,
2013-01-29 00:32:00,44.0,27.0,30.00,North,0,0.0,0.0,51,0.00,,,0.03,,2013-01-29 08:32:00,
2013-01-29 00:42:00,44.0,27.0,30.00,North,0,0.0,0.0,51,0.00,,,0.03,,2013-01-29 08:42:00,
2013-01-29 00:52:00,44.0,28.0,30.00,North,355,1.0,4.0,52,0.00,,,0.03,,2013-01-29 08:52:00,
2013-01-29 01:01:00,44.0,28.0,30.01,North,354,2.0,8.0,52,0.00,,,0.03,,2013-01-29 09:01:00,
2013-01-29 01:11:00,44.0,28.0,30.01,North,354,2.0,8.0,52,0.00,,,0.03,,2013-01-29 09:11:00,
2013-01-29 01:21:00,44.0,27.0,30.01,WNW,300,1.0,5.0,50,0.00,,,0.03,,2013-01-29 09:21:00,
2013-01-29 01:31:00,44.0,27.0,30.01,WNW,300,1.0,5.0,50,0.00,,,0.03,,2013-01-29 09:31:00,
2013-01-29 01:42:00,44.0,27.0,30.01,WNW,300,1.0,5.0,50,0.00,,,0.03,,2013-01-29 09:42:00,
2013-01-29 01:51:00,44.0,27.0,30.01,NNW,337,4.0,6.0,51,0.00,,,0.03,,2013-01-29 09:51:00,
2013-01-29 02:01:00,44.0,27.0,30.00,NNW,330,3.0,5.0,51,0.00,,,0.03,,2013-01-29 10:01:00,
2013-01-29 02:11:00,44.0,27.0,30.00,NNW,330,3.0,5.0,51,0.00,,,0.03,,2013-01-29 10:11:00,
2013-01-29 02:21:00,44.0,27.0,30.00,NW,319,1.0,5.0,51,0.00,,,0.02,,2013-01-29 10:21:00,
2013-01-29 02:32:00,44.0,27.0,30.00,NW,319,1.0,5.0,51,0.00,,,0.02,,2013-01-29 10:32:00,
2013-01-29 02:41:00,44.0,27.0,30.00,NW,319,1.0,5.0,51,0.00,,,0.02,,2013-01-29 10:41:00,
2013-01-29 02:52:00,44.0,27.0,30.01,NW,319,2.0,4.0,51,0.00,,,0.02,,2013-01-29 10:52:00,
2013-01-29 03:01:00,44.0,27.0,30.00,NW,319,6.0,7.0,51,0.00,,,0.02,,2013-01-29 11:01:00,
2013-01-29 03:11:00,44.0,27.0,30.00,NW,319,6.0,7.0,51,0.00,,,0.02,,2013-01-29 11:11:00,
2013-01-29 03:21:00,44.0,28.0,30.01,North,0,0.0,0.0,52,0.00,,,0.02,,2013-01-29 11:21:00,
2013-01-29 03:31:00,44.0,28.0,30.01,North,0,0.0,0.0,52,0.00,,,0.02,,2013-01-29 11:31:00,
2013-01-29 03:41:00,44.0,28.0,30.01,North,0,0.0,0.0,52,0.00,,,0.02,,2013-01-29 11:41:00,
2013-01-29 03:52:00,44.0,29.0,30.00,North,0,0.0,2.0,55,0.00,,,0.02,,2013-01-29 11:52:00,
2013-01-29 04:02:00,44.0,28.0,30.00,NW,319,4.0,5.0,52,0.00,,,0.02,,2013-01-29 12:02:00,
2013-01-29 04:12:00,44.0,28.0,30.00,NW,319,4.0,5.0,52,0.00,,,0.02,,2013-01-29 12:12:00,
2013-01-29 04:21:00,44.0,28.0,30.01,North,0,0.0,6.0,53,0.00,,,0.02,,2013-01-29 12:21:00,
2013-01-29 04:32:00,44.0,28.0,30.01,North,0,0.0,6.0,53,0.00,,,0.02,,2013-01-29 12:32:00,
2013-01-29 04:42:00,44.0,28.0,30.01,North,0,0.0,6.0,53,0.00,,,0.02,,2013-01-29 12:42:00,
2013-01-29 04:52:00,44.0,28.0,30.00,North,0,0.0,0.0,53,0.00,,,0.02,,2013-01-29 12:52:00,
2013-01-29 05:01:00,44.0,28.0,30.00,North,0,0.0,2.0,52,0.00,,,0.02,,2013-01-29 13:01:00,
2013-01-29 05:11:00,44.0,28.0,30.00,North,0,0.0,2.0,52,0.00,,,0.02,,2013-01-29 13:11:00,
2013-01-29 05:22:00,43.0,27.0,30.00,NW,306,2.0,5.0,53,0.00,,,0.02,,2013-01-29 13:22:00,
2013-01-29 05:31:00,43.0,27.0,30.00,NW,306,2.0,5.0,53,0.00,,,0.02,,2013-01-29 13:31:00,
2013-01-29 05:42:00,43.0,27.0,30.00,NW,306,2.0,5.0,53,0.00,,,0.02,,2013-01-29 13:42:00,
2013-01-29 05:52:00,43.0,27.0,29.99,WNW,296,2.0,5.0,52,0.00,,,0.02,,2013-01-29 13:52:00,
2013-01-29 06:01:00,44.0,27.0,30.00,North,0,0.0,4.0,51,0.00,,,0.02,,2013-01-29 14:01:00,
2013-01-29 06:12:00,44.0,27.0,30.00,North,0,0.0,0.0,51,0.00,,,0.02,,2013-01-29 14:12:00,
2013-01-29 06:21:00,44.0,27.0,30.00,North,0,0.0,0.0,51,0.00,,,0.02,,2013-01-29 14:21:00,
2013-01-29 06:32:00,44.0,27.0,30.00,North,0,0.0,0.0,51,0.00,,,0.02,,2013-01-29 14:32:00,
2013-01-29 06:42:00,44.0,27.0,30.00,North,0,0.0,0.0,51,0.00,,,0.02,,2013-01-29 14:42:00,
2013-01-29 06:52:00,44.0,28.0,30.00,North,0,0.0,2.0,52,0.00,,,0.01,,2013-01-29 14:52:00,
2013-01-29 07:01:00,44.0,27.0,30.01,North,0,0.0,0.0,51,0.00,,,0.01,,2013-01-29 15:01:00,
2013-01-29 12:21:00,48.0,32.0,30.00,SSE,160,3.0,8.0,53,0.00,,,0.01,,2013-01-29 20:21:00,
2013-01-29 12:32:00,48.0,32.0,30.00,SSE,160,3.0,8.0,53,0.00,,,0.01,,2013-01-29 20:32:00,
2013-01-29 12:41:00,48.0,32.0,30.00,SSE,160,3.0,8.0,53,0.00,,,0.01,,2013-01-29 20:41:00,
2013-01-29 12:53:00,49.0,32.0,29.99,SSE,160,5.0,11.0,52,0.00,,,0.01,,2013-01-29 20:53:00,
2013-01-29 13:01:00,49.0,34.0,29.99,SSE,166,1.0,5.0,57,0.00,,,0.01,,2013-01-29 21:01:00,
2013-01-29 13:12:00,49.0,34.0,29.99,SSE,166,1.0,5.0,57,0.00,,,0.01,,2013-01-29 21:12:00,
2013-01-29 13:21:00,49.0,35.0,29.98,SSE,166,4.0,7.0,59,0.00,,,0.01,,2013-01-29 21:21:00,
2013-01-29 13:32:00,49.0,35.0,29.98,SSE,166,4.0,7.0,59,0.00,,,0.01,,2013-01-29 21:32:00,
2013-01-29 13:41:00,49.0,35.0,29.98,SSE,166,4.0,7.0,59,0.00,,,0.01,,2013-01-29 21:41:00,
2013-01-29 13:52:00,48.0,37.0,29.98,SSE,158,2.0,7.0,65,0.00,,,0.01,,2013-01-29 21:52:00,
2013-01-29 14:01:00,48.0,34.0,29.98,South,170,3.0,7.0,58,0.00,,,0.01,,2013-01-29 22:01:00,
2013-01-29 14:12:00,48.0,34.0,29.98,South,170,3.0,7.0,58,0.00,,,0.01,,2013-01-29 22:12:00,
2013-01-29 14:21:00,49.0,35.0,29.98,South,170,1.0,6.0,59,0.00,,,0.01,,2013-01-29 22:21:00,
2013-01-29 14:32:00,49.0,35.0,29.98,South,170,1.0,6.0,59,0.00,,,0.01,,2013-01-29 22:32:00,
2013-01-29 14:41:00,49.0,35.0,29.98,South,170,1.0,6.0,59,0.00,,,0.01,,2013-01-29 22:41:00,
2013-01-29 14:53:00,49.0,39.0,29.97,North,0,0.0,4.0,67,0.00,,,0.00,,2013-01-29 22:53:00,
2013-01-29 15:01:00,50.0,39.0,29.97,SSE,166,1.0,7.0,65,0.00,,,0.00,,2013-01-29 23:01:00,
2013-01-29 15:11:00,50.0,39.0,29.97,SSE,166,1.0,7.0,65,0.00,,,0.00,,2013-01-29 23:11:00,
2013-01-29 15:22:00,49.0,37.0,29.97,SSE,166,1.0,6.0,63,0.00,,,0.00,,2013-01-29 23:22:00,
2013-01-29 15:32:00,49.0,37.0,29.97,SSE,166,1.0,6.0,63,0.00,,,0.00,,2013-01-29 23:32:00,
2013-01-29 15:41:00,49.0,37.0,29.97,SSE,166,1.0,6.0,63,0.00,,,0.00,,2013-01-29 23:41:00,
2013-01-29 15:53:00,49.0,36.0,29.97,SSE,168,1.0,7.0,61,0.00,,,0.00,,2013-01-29 23:53:00,
2013-01-29 16:01:00,49.0,36.0,29.97,South,177,4.0,8.0,60,0.00,,,0.00,,2013-01-30 00:01:00,
2013-01-29 16:11:00,49.0,36.0,29.97,South,177,4.0,8.0,60,0.00,,,0.00,,2013-01-30 00:11:00,
2013-01-29 16:21:00,48.0,34.0,29.97,South,171,1.0,5.0,58,0.00,,,0.00,,2013-01-30 00:21:00,
2013-01-29 16:32:00,48.0,34.0,29.97,South,171,1.0,5.0,58,0.00,,,0.00,,2013-01-30 00:32:00,
2013-01-29 16:42:00,48.0,34.0,29.97,South,171,1.0,5.0,58,0.00,,,0.00,,2013-01-30 00:42:00,
2013-01-29 16:52:00,49.0,34.0,29.97,South,171,1.0,4.0,56,0.00,,,0.00,,2013-01-30 00:52:00,
2013-01-29 17:01:00,47.0,31.0,29.98,SSE,164,1.0,7.0,54,0.00,,,0.00,,2013-01-30 01:01:00,
2013-01-29 17:11:00,47.0,31.0,29.98,SSE,164,1.0,7.0,54,0.00,,,0.00,,2013-01-30 01:11:00,
2013-01-29 17:22:00,48.0,31.0,29.98,SSE,164,5.0,6.0,52,0.00,,,0.00,,2013-01-30 01:22:00,
2013-01-29 17:31:00,48.0,31.0,29.98,SSE,164,5.0,6.0,52,0.00,,,0.00,,2013-01-30 01:31:00,
2013-01-29 17:42:00,48.0,31.0,29.98,SSE,164,5.0,6.0,52,0.00,,,0.00,,2013-01-30 01:42:00,
2013-01-29 17:52:00,49.0,31.0,29.98,North,0,0.0,0.0,49,0.00,,,0.00,,2013-01-30 01:52:00,
2013-01-29 18:01:00,49.0,31.0,29.98,North,0,0.0,0.0,49,0.00,,,0.00,,2013-01-30 02:01:00,
2013-01-29 18:12:00,48.0,29.0,29.99,SSE,147,6.0,9.0,48,0.00,,,0.00,,2013-01-30 02:12:00,
2013-01-29 18:21:00,48.0,29.0,29.99,SSE,147,6.0,9.0,48,0.00,,,0.00,,2013-01-30 02:21:00,
2013-01-29 18:33:00,48.0,29.0,29.99,SSE,147,6.0,9.0,48,0.00,,,0.00,,2013-01-30 02:33:00,
2013-01-29 18:42:00,48.0,29.0,29.99,SSE,147,6.0,9.0,48,0.00,,,0.00,,2013-01-30 02:42:00,
2013-01-29 18:53:00,49.0,31.0,30.00,NNW,348,2.0,7.0,50,0.00,,,0.00,,2013-01-30 02:53:00,
2013-01-29 19:02:00,47.0,31.0,30.01,North,0,0.0,7.0,53,0.00,,,0.00,,2013-01-30 03:02:00,
2013-01-29 19:11:00,47.0,31.0,30.01,North,0,0.0,7.0,53,0.00,,,0.00,,2013-01-30 03:11:00,
2013-01-29 19:22:00,49.0,-99.9,30.01,North,0,0.0,0.0,-999,0.00,,,0.00,,2013-01-30 03:22:00,
2013-01-29 19:32:00,49.0,-99.9,30.01,North,0,0.0,0.0,-999,0.00,,,0.00,,2013-01-30 03:32:00,
2013-01-29 19:42:00,49.0,-99.9,30.01,North,0,0.0,0.0,-999,0.00,,,0.00,,2013-01-30 03:42:00,
2013-01-29 19:52:00,51.0,31.0,30.01,ESE,118,5.0,9.0,46,0.00,,,0.00,,2013-01-30 03:52:00,
2013-01-29 20:01:00,51.0,31.0,30.01,ESE,118,5.0,9.0,46,0.00,,,0.00,,2013-01-30 04:01:00,
2013-01-29 20:11:00,51.0,31.0,30.01,ESE,118,5.0,9.0,46,0.00,,,0.00,,2013-01-30 04:11:00,
2013-01-29 20:21:00,49.0,34.0,30.01,North,0,0.0,6.0,57,0.00,,,0.00,,2013-01-30 04:21:00,
2013-01-29 20:32:00,49.0,34.0,30.01,North,0,0.0,6.0,57,0.00,,,0.00,,2013-01-30 04:32:00,
2013-01-29 20:42:00,49.0,34.0,30.01,North,0,0.0,6.0,57,0.00,,,0.00,,2013-01-30 04:42:00,
2013-01-29 20:52:00,48.0,34.0,30.02,ESE,119,2.0,5.0,58,0.00,,,0.00,,2013-01-30 04:52:00,
2013-01-29 21:03:00,47.0,35.0,30.03,SE,129,7.0,9.0,63,0.00,,,0.00,,2013-01-30 05:03:00,
2013-01-29 21:11:00,47.0,36.0,30.04,SE,125,8.0,10.0,66,0.00,,,0.00,,2013-01-30 05:11:00,
2013-01-29 21:21:00,47.0,36.0,30.04,SE,125,8.0,10.0,66,0.00,,,0.00,,2013-01-30 05:21:00,
2013-01-29 21:42:00,47.0,36.0,30.04,SE,125,8.0,10.0,66,0.00,,,0.00,,2013-01-30 05:42:00,
2013-01-29 21:52:00,47.0,36.0,30.04,ESE,113,5.0,7.0,65,0.00,,,0.00,,2013-01-30 05:52:00,
2013-01-29 22:02:00,48.0,34.0,30.05,ESE,108,6.0,8.0,58,0.00,,,0.00,,2013-01-30 06:02:00,
2013-01-29 22:11:00,48.0,34.0,30.05,ESE,108,6.0,8.0,58,0.00,,,0.00,,2013-01-30 06:11:00,
2013-01-29 22:21:00,47.0,32.0,30.05,ESE,118,8.0,10.0,56,0.00,,,0.00,,2013-01-30 06:21:00,
2013-01-29 22:31:00,47.0,32.0,30.05,ESE,118,8.0,10.0,56,0.00,,,0.00,,2013-01-30 06:31:00,
2013-01-29 22:41:00,47.0,32.0,30.05,ESE,118,8.0,10.0,56,0.00,,,0.00,,2013-01-30 06:41:00,
2013-01-29 22:52:00,48.0,34.0,30.05,ESE,120,1.0,4.0,57,0.00,,,0.00,,2013-01-30 06:52:00,
2013-01-29 23:01:00,47.0,35.0,30.07,ESE,112,7.0,11.0,62,0.00,,,0.00,,2013-01-30 07:01:00,
2013-01-29 23:11:00,47.0,35.0,30.07,ESE,112,7.0,11.0,62,0.00,,,0.00,,2013-01-30 07:11:00,
2013-01-29 23:21:00,48.0,34.0,30.06,ESE,105,7.0,9.0,59,0.00,,,0.00,,2013-01-30 07:21:00,
2013-01-29 23:31:00,48.0,34.0,30.06,ESE,105,7.0,9.0,59,0.00,,,0.00,,2013-01-30 07:31:00,
2013-01-29 23:41:00,48.0,34.0,30.06,ESE,105,7.0,9.0,59,0.00,,,0.00,,2013-01-30 07:41:00,
2013-01-29 23:52:00,48.0,33.0,30.06,ESE,104,3.0,7.0,56,0.00,,,0.00,,2013-01-30 07:52:00,